Notices

What's New in latest Release from April 7th, 2021:

- Updated Glossary, including Speed of Maximum Gust, and Total Hourly Precipitation

- Updated national and regional climate services offices contacts and prices information

- Addition of station inventory lists for 1981-2010, 1971-2000, and 1961-1990 Normals.

If you haven't already, please take our survey and provide feedback about our website: https://eccc.sondage-survey.ca/f/LanguageSelection.aspx?s=442ca660-fcf1-47c0-95a9-59707d6fd709

Hourly Data Report for April 05, 2017

CLYDE RIVER A
NUNAVUT

70°29'09.000" N
68°31'01.000" W
26.50 m
2400804
71090
YCY

Download Data

Hourly Data (April 2017)
Hourly Data Report for April 5, 2017
TIME
LST
Temp Definition
°C
Dew Point Definition
°C
Rel Hum Definition
%
Precip. Amount Definition
mm

Wind Dir Definition
10's deg

Wind Spd Definition
km/h
Visibility Definition
km
Stn Press Definition
kPa
Hmdx Definition


Wind Chill Definition


Weather Definition


00:00 -16.7 -18.0 90 0.0 6 5 16.1 101.56   -21 LegendNANA
01:00 -19.8 -21.4 87 0.0 1 8 16.1 101.55   -26 LegendNANA
02:00 -18.6 -20.0 89 0.0 33 8 16.1 101.54   -25 LegendNANA
03:00 -18.6 -19.9 90 0.0 LegendMM 4 16.1 101.55   -22 LegendNANA
04:00 -19.4 -21.1 86 0.0 2 8 16.1 101.56   -26 LegendNANA
05:00 -19.0 -20.4 89 0.0 28 5 16.1 101.57   -23 LegendNANA
06:00 -19.8 -21.7 85 0.0 LegendMM 4 16.1 101.56   -23 LegendNANA
07:00 -19.2 -21.3 83 0.0 LegendMM 4 16.1 101.57   -23 LegendNANA
08:00 -17.3 -19.8 82 0.0   0 16.1 101.58     LegendNANA
09:00 -17.5 -19.7 83 0.0 9 8 16.1 101.57   -23 LegendNANA
10:00 -16.5 -18.8 83 0.0 LegendMM 4 16.1 101.56   -20 LegendNANA
11:00 -16.3 -18.7 82 0.0 7 5 16.1 101.54   -20 LegendNANA
12:00 -15.8 -18.2 82 0.0 7 4 16.1 101.53   -19 LegendNANA
13:00 -15.5 -17.5 85 0.0 6 8 16.1 101.54   -21 LegendNANA
14:00 -15.1 -17.3 83 0.0 36 5 16.1 101.55   -19 LegendNANA
15:00 -14.6 -16.8 84 0.0 4 8 16.1 101.55   -20 LegendNANA
16:00 -14.3 -16.4 85 0.0 5 5 16.1 101.54   -18 LegendNANA
17:00 -15.1 -16.9 86 0.0 LegendMM 4 16.1 101.54   -18 LegendNANA
18:00 -14.8 -16.3 88 0.0 6 5 16.1 101.54   -18 LegendNANA
19:00 -16.8 -18.3 88 0.0 9 8 16.1 101.54   -22 LegendNANA
20:00 -17.9 -19.5 87 0.0 4 5 16.1 101.55   -22 LegendNANA
21:00 -18.3 -19.8 88 0.0 8 8 16.1 101.54   -24 LegendNANA
22:00 -18.2 -19.9 87 0.0 6 8 16.1 101.53   -24 LegendNANA
23:00 -20.6 -22.8 83 0.0 3 5 16.1 101.52   -25 LegendNANA

Notes on Data Quality.

Legend

  • E = Estimated
  • M = Missing
  • NA = Not Available*
  • [empty] = Indicates an unobserved value
Date modified: